Previsão horária em Barnislawice

Hoje, 28 Outubro, Quarta-feira

Tempo Temperatura Precipitação Vento Pressão Humidade
00:00 +7°C° 0 mm 5 m/s 752 mmHg 79%
01:00 +7°C° 0 mm 5 m/s 752 mmHg 77%
02:00 +7°C° 0 mm 6 m/s 752 mmHg 77%
03:00 +7°C° 0 mm 6 m/s 752 mmHg 76%
04:00 +7°C° 0 mm 6 m/s 751 mmHg 76%
05:00 +6°C° 0 mm 7 m/s 751 mmHg 75%
06:00 +6°C° 0 mm 7 m/s 752 mmHg 74%
07:00 +8°C° 0 mm 7 m/s 751 mmHg 71%
08:00 +8°C° 0 mm 7 m/s 751 mmHg 73%
09:00 +8°C° 0 mm 7 m/s 752 mmHg 75%
10:00 +8°C° 0 mm 7 m/s 752 mmHg 76%
11:00 +9°C° 0 mm 6 m/s 752 mmHg 76%
12:00 +10°C° 0 mm 6 m/s 752 mmHg 76%
13:00 +10°C° 0 mm 5 m/s 752 mmHg 78%
14:00 +10°C° 0 mm 5 m/s 752 mmHg 79%
15:00 +10°C° 0 mm 5 m/s 753 mmHg 81%
16:00 +10°C° 0 mm 5 m/s 753 mmHg 82%
17:00 +9°C° 0.1 mm 5 m/s 753 mmHg 85%
18:00 +9°C° 0.1 mm 5 m/s 753 mmHg 88%
19:00 +9°C° 0.1 mm 5 m/s 753 mmHg 90%
20:00 +9°C° 0 mm 5 m/s 753 mmHg 90%
21:00 +10°C° 0 mm 4 m/s 753 mmHg 90%
22:00 +10°C° 0 mm 4 m/s 753 mmHg 90%
23:00 +8°C° 0 mm 4 m/s 753 mmHg 91%

Amanhã, 29 Outubro, Quinta-feira

Tempo Temperatura Precipitação Vento Pressão Humidade
00:00 +8°C° 0 mm 4 m/s 753 mmHg 92%
01:00 +7°C° 0 mm 4 m/s 753 mmHg 92%
02:00 +7°C° 0 mm 5 m/s 752 mmHg 91%
03:00 +7°C° 0 mm 5 m/s 752 mmHg 89%
04:00 +7°C° 0 mm 5 m/s 752 mmHg 88%
05:00 +8°C° 0.3 mm 6 m/s 751 mmHg 88%
06:00 +8°C° 0.3 mm 6 m/s 751 mmHg 89%
07:00 +8°C° 0.3 mm 6 m/s 751 mmHg 89%
08:00 +9°C° 0.6 mm 6 m/s 751 mmHg 87%
09:00 +9°C° 0.6 mm 6 m/s 751 mmHg 85%
10:00 +9°C° 0.6 mm 6 m/s 751 mmHg 82%
11:00 +9°C° 0.1 mm 7 m/s 751 mmHg 79%
12:00 +9°C° 0.1 mm 7 m/s 751 mmHg 75%
13:00 +9°C° 0.1 mm 8 m/s 751 mmHg 72%
14:00 +9°C° 0.9 mm 8 m/s 752 mmHg 76%
15:00 +9°C° 0.9 mm 8 m/s 752 mmHg 81%
16:00 +7°C° 0.9 mm 9 m/s 753 mmHg 85%
17:00 +7°C° 0.6 mm 9 m/s 753 mmHg 83%
18:00 +7°C° 0.6 mm 8 m/s 754 mmHg 82%
19:00 +9°C° 0.6 mm 8 m/s 754 mmHg 80%
20:00 +7°C° 0.1 mm 8 m/s 755 mmHg 82%
21:00 +8°C° 0.1 mm 7 m/s 755 mmHg 83%
22:00 +6°C° 0.1 mm 7 m/s 756 mmHg 85%
23:00 +7°C° 0 mm 6 m/s 756 mmHg 87%

Depois de amanhã, 30 Outubro, Sexta-feira

Tempo Temperatura Precipitação Vento Pressão Humidade
00:00 +7°C° 0 mm 6 m/s 756 mmHg 89%
01:00 +7°C° 0 mm 5 m/s 757 mmHg 91%
02:00 +6°C° 0 mm 5 m/s 757 mmHg 91%
03:00 +6°C° 0 mm 4 m/s 757 mmHg 91%
04:00 +6°C° 0 mm 4 m/s 757 mmHg 92%
05:00 +6°C° 0.1 mm 4 m/s 757 mmHg 92%
06:00 +6°C° 0.1 mm 4 m/s 757 mmHg 91%
07:00 +6°C° 0.1 mm 4 m/s 757 mmHg 91%
08:00 +6°C° 0.9 mm 4 m/s 756 mmHg 92%
09:00 +6°C° 0.9 mm 4 m/s 756 mmHg 93%
10:00 +6°C° 0.9 mm 4 m/s 756 mmHg 94%
11:00 +7°C° 1.2 mm 4 m/s 756 mmHg 95%
12:00 +7°C° 1.2 mm 4 m/s 756 mmHg 95%
13:00 +8°C° 1.2 mm 4 m/s 755 mmHg 96%
14:00 +8°C° 1.2 mm 4 m/s 756 mmHg 96%
15:00 +10°C° 1.2 mm 4 m/s 756 mmHg 97%
16:00 +11°C° 1.2 mm 4 m/s 756 mmHg 97%
17:00 +11°C° 1.1 mm 4 m/s 756 mmHg 97%
18:00 +12°C° 1.1 mm 5 m/s 756 mmHg 97%
19:00 +12°C° 1.1 mm 5 m/s 756 mmHg 96%
20:00 +12°C° 0.2 mm 5 m/s 757 mmHg 96%
21:00 +12°C° 0.2 mm 5 m/s 757 mmHg 96%
22:00 +12°C° 0.2 mm 5 m/s 758 mmHg 96%
23:00 +12°C° 0.2 mm 4 m/s 758 mmHg 96%

31 Outubro, Sábado

Tempo Temperatura Precipitação Vento Pressão Humidade
00:00 +12°C° 0.2 mm 4 m/s 759 mmHg 96%
01:00 +12°C° 0.2 mm 4 m/s 759 mmHg 97%
02:00 +12°C° 0 mm 4 m/s 759 mmHg 97%
03:00 +12°C° 0 mm 3 m/s 760 mmHg 97%
04:00 +12°C° 0 mm 3 m/s 760 mmHg 97%
05:00 +12°C° 0.1 mm 3 m/s 760 mmHg 97%
06:00 +13°C° 0.1 mm 2 m/s 760 mmHg 97%
07:00 +13°C° 0.1 mm 2 m/s 761 mmHg 98%
08:00 +13°C° 0.1 mm 2 m/s 761 mmHg 97%
09:00 +13°C° 0.1 mm 2 m/s 761 mmHg 96%
10:00 +14°C° 0.1 mm 2 m/s 761 mmHg 96%
11:00 +14°C° 0.1 mm 2 m/s 761 mmHg 96%
12:00 +14°C° 0.1 mm 2 m/s 761 mmHg 96%
13:00 +14°C° 0.1 mm 2 m/s 762 mmHg 95%
14:00 +14°C° 0.1 mm 2 m/s 761 mmHg 96%
15:00 +14°C° 0.1 mm 2 m/s 761 mmHg 96%
16:00 +14°C° 0.1 mm 2 m/s 761 mmHg 96%
17:00 +13°C° 0 mm 2 m/s 761 mmHg 96%
18:00 +13°C° 0 mm 2 m/s 761 mmHg 96%
19:00 +12°C° 0 mm 3 m/s 761 mmHg 96%
20:00 +12°C° 0 mm 3 m/s 761 mmHg 96%
21:00 +12°C° 0 mm 3 m/s 761 mmHg 95%
22:00 +12°C° 0 mm 4 m/s 761 mmHg 95%
23:00 +12°C° 0 mm 4 m/s 761 mmHg 95%

1 Novembro, Domingo

Tempo Temperatura Precipitação Vento Pressão Humidade
00:00 +11°C° 0 mm 4 m/s 760 mmHg 94%
01:00 +10°C° 0 mm 5 m/s 760 mmHg 94%
02:00 +10°C° 0 mm 5 m/s 760 mmHg 94%
03:00 +10°C° 0 mm 5 m/s 760 mmHg 93%
04:00 +10°C° 0 mm 5 m/s 759 mmHg 93%
05:00 +10°C° 0 mm 6 m/s 759 mmHg 93%
06:00 +10°C° 0 mm 6 m/s 759 mmHg 93%
07:00 +10°C° 0 mm 6 m/s 759 mmHg 93%
08:00 +10°C° 0 mm 7 m/s 758 mmHg 90%
09:00 +11°C° 0 mm 7 m/s 758 mmHg 86%
10:00 +11°C° 0 mm 8 m/s 757 mmHg 83%
11:00 +12°C° 0 mm 8 m/s 757 mmHg 80%
12:00 +12°C° 0 mm 8 m/s 757 mmHg 77%
13:00 +13°C° 0 mm 8 m/s 756 mmHg 75%
14:00 +13°C° 0 mm 8 m/s 756 mmHg 76%
15:00 +12°C° 0 mm 7 m/s 756 mmHg 77%
16:00 +12°C° 0 mm 7 m/s 755 mmHg 78%
17:00 +12°C° 0 mm 7 m/s 755 mmHg 79%
18:00 +13°C° 0 mm 6 m/s 755 mmHg 80%
19:00 +13°C° 0 mm 6 m/s 755 mmHg 81%
20:00 +13°C° 0 mm 6 m/s 755 mmHg 82%
21:00 +13°C° 0 mm 6 m/s 755 mmHg 84%
22:00 +13°C° 0 mm 6 m/s 755 mmHg 86%
23:00 +13°C° 0 mm 6 m/s 755 mmHg 87%

2 Novembro, Segunda-feira

Tempo Temperatura Precipitação Vento Pressão Humidade
00:00 +13°C° 0 mm 6 m/s 755 mmHg 88%
01:00 +13°C° 0 mm 6 m/s 755 mmHg 89%
02:00 +13°C° 0.2 mm 5 m/s 755 mmHg 89%
03:00 +13°C° 0.2 mm 5 m/s 754 mmHg 89%
04:00 +13°C° 0.2 mm 5 m/s 754 mmHg 90%
05:00 +13°C° 0.1 mm 5 m/s 754 mmHg 88%
06:00 +13°C° 0.1 mm 5 m/s 754 mmHg 87%
07:00 +13°C° 0.1 mm 5 m/s 754 mmHg 86%
08:00 +14°C° 0 mm 5 m/s 754 mmHg 85%
09:00 +14°C° 0 mm 5 m/s 754 mmHg 85%
10:00 +14°C° 0 mm 6 m/s 754 mmHg 84%
11:00 +15°C° 0 mm 5 m/s 755 mmHg 82%
12:00 +16°C° 0 mm 5 m/s 755 mmHg 80%
13:00 +17°C° 0 mm 5 m/s 755 mmHg 78%
14:00 +16°C° 0 mm 5 m/s 755 mmHg 79%
15:00 +16°C° 0 mm 5 m/s 755 mmHg 81%
16:00 +16°C° 0 mm 5 m/s 755 mmHg 83%
17:00 +15°C° 0 mm 5 m/s 755 mmHg 84%
18:00 +15°C° 0 mm 5 m/s 755 mmHg 85%
19:00 +15°C° 0 mm 5 m/s 755 mmHg 87%
20:00 +15°C° 0 mm 5 m/s 755 mmHg 86%
21:00 +14°C° 0 mm 5 m/s 755 mmHg 86%
22:00 +14°C° 0 mm 5 m/s 756 mmHg 86%
23:00 +14°C° 0 mm 5 m/s 756 mmHg 86%
Mostrar mais